Погода в Кытлыме

Россия / Свердловская область     59°30′00″N   59°12′07″E
темп.,
°C
ветер,
м/с
пор.,
м/с
влажн.,
%
обл.,
%
осадки,
мм/ч
давл.,
гПа
погр.,
м
24 января, пн
пн2423:00−13з3292100 0.0 103540
02:00−10з2392100 0.0 103478
05:00−10з2395100 0.1 103493
08:00−10з2495100 0.1 1033173
11:00−10з259485 0.3 1032263
14:00−9з359078 0.1 1032456
17:00−12з339680 0.1 103276
20:00−13з359684 0.1 1031130
25 января, вт
вт2523:00−14з3596100 0.1 1029155
02:00−12з31093100 0.0 1026452
05:00−12з41393100 0.1 1025546
08:00−11з41390100 0.2 1023530
11:00−11з41089100 0.2 1023473
14:00−9з4986100 0.0 1022414
17:00−11з3690100 0.0 1023291
20:00−12з3691100 0.0 1023191
26 января, ср
ср2623:00−14з349693 0.0 102390
02:00−16з339743 0.0 102540
05:00−17з339618 0.0 102549
08:00−17з339430 0.0 102448
11:00−14з349099 0.0 102374
14:00−10з348472 0.0 1022141
17:00−15з229484 0.0 102322
20:00−16з229339 0.0 102325
27 января, чт
чт2723:00−16з229860 0.0 102224
02:00−15з2298100 0.0 102024
05:00−10юз239698 0.3 101887
08:00−12з229699 0.1 101838
11:00−10зюз2494100 0.3 1017257
14:00−9зюз358790 0.1 1018569
17:00−12зюз2296100 0.1 102038
20:00−13зюз229798 0.1 102141
28 января, пт
пт2823:00−13з2297100 0.1 102141
02:00−14з2297100 0.0 102138
05:00−16з229762 0.0 102224
08:00−17з229840 0.0 102219
11:00−15з229518 0.0 102259
14:00−11з228963 0.0 1021210
17:00−16з219895 0.0 102211
20:00−18з219879 0.0 102314